QPF
0.00 0.00 0.00 0.00 0.00 0.00 0.00 0.00 0.00 0.00 0.00 0.00 0.00 0.00 0.00 0.00 0.00 0.00 0.00 0.00 0.00 0.00 0.00 0.00 0.00 0.00 0.00 0.01 0.01 0.02 0.02 0.05 0.10 0.11 0.07 0.03 0.01 0.00 0.00 0.00 0.00 0.00 0.00 0.00
0.00 0.00 0.00 0.00 0.00 0.00 0.00 0.00 0.00 0.00 0.00 0.00 0.00 0.00 0.00 0.00 0.00 0.00 0.00 0.00 0.00 0.00 0.00 0.00 0.00 0.00 0.00 0.00 0.01 0.03 0.03 0.04 0.05 0.08 0.11 0.11 0.07 0.01 0.00 0.00 0.00 0.00 0.00 0.00
0.00 0.00 0.00 0.00 0.00 0.00 0.00 0.00 0.00 0.00 0.00 0.00 0.00 0.00 0.00 0.00 0.00 0.00 0.00 0.00 0.00 0.00 0.00 0.00 0.00 0.00 0.00 0.00 0.00 0.02 0.03 0.04 0.05 0.04 0.07 0.08 0.07 0.04 0.01 0.00 0.00 0.00 0.00 0.00
0.00 0.00 0.00 0.00 0.00 0.00 0.00 0.00 0.00 0.00 0.00 0.00 0.00 0.00 0.00 0.00 0.00 0.00 0.00 0.00 0.00 0.00 0.00 0.00 0.00 0.00 0.00 0.00 0.00 0.00 0.01 0.01 0.03 0.04 0.06 0.04 0.04 0.05 0.06 0.04 0.01 0.00 0.00 0.00
0.00 0.00 0.00 0.00 0.00 0.00 0.00 0.00 0.00 0.00 0.00 0.00 0.00 0.00 0.00 0.00 0.00 0.00 0.00 0.00 0.00 0.00 0.00 0.00 0.00 0.00 0.00 0.00 0.00 0.00 0.00 0.00 0.01 0.02 0.02 0.02 0.01 0.03 0.05 0.06 0.04 0.01 0.00 0.00
0.00 0.00 0.00 0.00 0.00 0.00 0.00 0.00 0.00 0.00 0.00 0.00 0.00 0.00 0.00 0.00 0.00 0.00 0.00 0.00 0.00 0.00 0.00 0.00 0.00 0.00 0.00 0.00 0.00 0.00 0.00 0.00 0.00 0.00 0.01 0.02 0.02 0.01 0.03 0.04 0.05 0.04 0.04 0.01
0.00 0.00 0.00 0.00 0.00 0.00 0.00 0.00 0.00 0.00 0.00 0.00 0.00 0.00 0.00 0.00 0.00 0.00 0.00 0.00 0.00 0.00 0.00 0.00 0.00 0.00 0.00 0.00 0.00 0.00 0.00 0.00 0.00 0.00 0.00 0.01 0.02 0.02 0.02 0.03 0.04 0.04 0.04 0.04
0.00 0.00 0.00 0.00 0.00 0.00 0.00 0.00 0.00 0.00 0.00 0.00 0.00 0.00 0.00 0.00 0.00 0.00 0.00 0.00 0.00 0.00 0.00 0.00 0.00 0.00 0.00 0.00 0.00 0.00 0.00 0.00 0.00 0.00 0.00 0.00 0.01 0.02 0.03 0.03 0.03 0.03 0.02 0.04
0.00 0.00 0.00 0.00 0.00 0.00 0.00 0.00 0.00 0.00 0.00 0.00 0.00 0.00 0.00 0.00 0.00 0.00 0.00 0.00 0.00 0.00 0.00 0.00 0.00 0.00 0.00 0.00 0.00 0.00 0.00 0.00 0.00 0.00 0.00 0.00 0.00 0.01 0.02 0.02 0.03 0.03 0.02 0.01
0.00 0.00 0.00 0.00 0.00 0.00 0.00 0.00 0.00 0.00 0.00 0.00 0.00 0.00 0.00 0.00 0.00 0.00 0.00 0.00 0.00 0.00 0.00 0.00 0.00 0.00 0.00 0.00 0.00 0.00 0.00 0.00 0.00 0.00 0.00 0.00 0.00 0.00 0.02 0.04 0.04 0.03 0.03 0.03
0.00 0.00 0.00 0.00 0.00 0.00 0.00 0.00 0.00 0.00 0.00 0.00 0.00 0.00 0.00 0.00 0.00 0.00 0.00 0.00 0.00 0.00 0.00 0.00 0.00 0.00 0.00 0.00 0.00 0.00 0.00 0.00 0.00 0.00 0.00 0.00 0.00 0.00 0.00 0.01 0.02 0.02 0.03 0.02
0.00 0.00 0.00 0.00 0.00 0.00 0.00 0.00 0.00 0.00 0.00 0.00 0.00 0.00 0.00 0.00 0.00 0.00 0.00 0.00 0.00 0.00 0.00 0.00 0.00 0.00 0.00 0.00 0.00 0.00 0.00 0.00 0.00 0.00 0.00 0.00 0.00 0.00 0.00 0.01 0.02 0.02 0.02 0.00
0.00 0.00 0.00 0.00 0.00 0.00 0.00 0.00 0.00 0.00 0.00 0.00 0.00 0.00 0.00 0.00 0.00 0.00 0.00 0.00 0.00 0.00 0.00 0.00 0.00 0.00 0.00 0.00 0.00 0.00 0.00 0.00 0.00 0.00 0.00 0.00 0.00 0.00 0.00 0.02 0.02 0.02 0.01 0.00
0.00 0.00 0.00 0.00 0.00 0.00 0.00 0.00 0.00 0.00 0.00 0.00 0.00 0.00 0.00 0.00 0.00 0.00 0.00 0.00 0.00 0.00 0.00 0.00 0.00 0.00 0.00 0.00 0.00 0.00 0.00 0.00 0.00 0.00 0.00 0.00 0.00 0.00 0.00 0.01 0.03 0.05 0.04 0.01
0.00 0.00 0.00 0.00 0.00 0.00 0.00 0.00 0.00 0.00 0.00 0.00 0.00 0.00 0.00 0.00 0.00 0.00 0.00 0.00 0.00 0.00 0.00 0.00 0.00 0.00 0.00 0.00 0.00 0.00 0.00 0.00 0.00 0.00 0.00 0.00 0.00 0.00 0.00 0.00 0.01 0.02 0.02 0.01
0.00 0.00 0.00 0.00 0.00 0.00 0.00 0.00 0.00 0.00 0.00 0.00 0.00 0.00 0.00 0.00 0.00 0.00 0.00 0.00 0.00 0.00 0.00 0.00 0.00 0.00 0.00 0.00 0.00 0.00 0.00 0.00 0.00 0.00 0.00 0.00 0.00 0.00 0.00 0.00 0.01 0.01 0.01 0.00
0.00 0.00 0.00 0.00 0.00 0.00 0.00 0.00 0.00 0.00 0.00 0.00 0.00 0.00 0.00 0.00 0.00 0.00 0.00 0.00 0.00 0.00 0.00 0.00 0.00 0.00 0.00 0.00 0.00 0.00 0.00 0.00 0.00 0.00 0.00 0.00 0.00 0.00 0.00 0.00 0.00 0.00 0.00 0.00
0.00 0.00 0.00 0.00 0.00 0.00 0.00 0.00 0.00 0.00 0.00 0.00 0.00 0.00 0.00 0.00 0.00 0.00 0.00 0.00 0.00 0.00 0.00 0.00 0.00 0.00 0.00 0.00 0.00 0.00 0.00 0.00 0.00 0.00 0.00 0.00 0.00 0.00 0.00 0.00 0.00 0.00 0.00 0.00
0.00 0.00 0.00 0.00 0.00 0.00 0.00 0.00 0.00 0.00 0.00 0.00 0.00 0.00 0.00 0.00 0.00 0.00 0.00 0.00 0.00 0.00 0.00 0.00 0.00 0.00 0.00 0.00 0.00 0.00 0.00 0.00 0.00 0.00 0.00 0.00 0.00 0.00 0.00 0.00 0.00 0.00 0.00 0.00
0.00 0.00 0.00 0.00 0.00 0.00 0.00 0.00 0.00 0.00 0.00 0.00 0.00 0.00 0.00 0.00 0.00 0.00 0.00 0.00 0.00 0.00 0.00 0.00 0.00 0.00 0.00 0.00 0.00 0.00 0.00 0.00 0.00 0.00 0.00 0.00 0.00 0.00 0.00 0.00 0.00 0.00 0.00 0.00
0.00 0.00 0.00 0.00 0.00 0.00 0.00 0.00 0.00 0.00 0.00 0.00 0.00 0.00 0.00 0.00 0.00 0.00 0.00 0.00 0.00 0.00 0.00 0.00 0.00 0.00 0.00 0.00 0.00 0.00 0.00 0.00 0.00 0.00 0.00 0.00 0.00 0.00 0.00 0.00 0.00 0.00 0.00 0.00
0.00 0.00 0.00 0.00 0.00 0.00 0.00 0.00 0.00 0.00 0.00 0.00 0.00 0.00 0.00 0.00 0.00 0.00 0.00 0.00 0.00 0.00 0.00 0.00 0.00 0.00 0.00 0.00 0.00 0.00 0.00 0.00 0.00 0.00 0.00 0.00 0.00 0.00 0.00 0.00 0.00 0.00 0.00 0.00
0.00 0.00 0.00 0.00 0.00 0.00 0.00 0.00 0.00 0.00 0.00 0.00 0.00 0.00 0.00 0.00 0.00 0.00 0.00 0.00 0.00 0.00 0.00 0.00 0.00 0.00 0.00 0.00 0.00 0.00 0.00 0.00 0.00 0.00 0.00 0.00 0.00 0.00 0.00 0.00 0.00 0.00 0.00 0.00
0.00 0.00 0.00 0.00 0.00 0.00 0.00 0.00 0.00 0.00 0.00 0.00 0.00 0.00 0.00 0.00 0.00 0.00 0.00 0.00 0.00 0.00 0.00 0.00 0.00 0.00 0.00 0.00 0.00 0.00 0.00 0.00 0.00 0.00 0.00 0.00 0.00 0.00 0.00 0.00 0.00 0.00 0.00 0.00
0.00 0.00 0.00 0.00 0.00 0.00 0.00 0.00 0.00 0.00 0.00 0.00 0.00 0.00 0.00 0.00 0.00 0.00 0.00 0.00 0.00 0.00 0.00 0.00 0.00 0.00 0.00 0.00 0.00 0.00 0.00 0.00 0.00 0.00 0.00 0.00 0.00 0.00 0.00 0.00 0.00 0.00 0.00 0.00
0.00 0.00 0.00 0.00 0.00 0.00 0.00 0.00 0.00 0.00 0.00 0.00 0.00 0.00 0.00 0.00 0.00 0.00 0.00 0.00 0.00 0.00 0.00 0.00 0.00 0.00 0.00 0.00 0.00 0.00 0.00 0.00 0.00 0.00 0.00 0.00 0.00 0.00 0.00 0.00 0.00 0.00 0.00 0.00
MSLP
1029.18 1030.15 1031.63 1031.69 1031.06 1030.91 1030.74 1030.63 1030.73 1029.50 1028.95 1028.24 1027.10 1025.54 1024.27 1023.02 1022.14 1021.65 1021.04 1020.24 1019.15 1018.20 1017.21 1016.14 1014.91 1013.62 1013.04 1012.47 1011.52 1011.15 1010.90 1010.73 1010.80 1011.55 1011.75 1012.13 1011.99 1012.26 1012.45 1012.63 1013.08 1013.64 1014.15 1014.36
1030.14 1031.39 1031.81 1031.35 1030.90 1030.63 1030.60 1030.61 1030.67 1029.30 1028.89 1028.25 1027.93 1025.80 1024.49 1023.32 1022.65 1022.09 1021.37 1020.59 1019.86 1018.65 1017.52 1016.79 1015.85 1014.94 1014.23 1014.24 1013.78 1011.84 1010.74 1010.67 1009.91 1010.77 1010.87 1010.97 1011.34 1011.53 1011.73 1012.14 1012.21 1012.59 1013.11 1013.64
1030.77 1031.76 1031.59 1031.06 1030.63 1030.17 1030.25 1030.51 1030.63 1030.96 1029.81 1029.18 1028.66 1026.67 1025.18 1023.25 1022.71 1021.67 1020.86 1020.48 1019.70 1018.97 1018.32 1017.47 1016.57 1015.98 1015.78 1015.36 1015.05 1013.65 1011.94 1010.84 1010.42 1009.87 1010.25 1010.24 1010.32 1010.71 1011.19 1011.45 1011.45 1011.39 1012.05 1012.70
1031.58 1031.53 1031.51 1030.88 1030.49 1030.14 1029.85 1030.04 1030.51 1030.69 1030.51 1031.02 1030.14 1028.89 1025.84 1023.99 1022.94 1021.98 1021.16 1020.42 1019.62 1019.19 1018.36 1017.76 1017.01 1016.44 1015.78 1015.50 1015.73 1014.43 1013.52 1012.33 1010.96 1010.19 1009.35 1009.32 1009.31 1009.18 1009.51 1010.35 1011.02 1011.33 1011.27 1011.65
1031.77 1031.72 1031.62 1031.06 1030.63 1030.31 1030.38 1029.92 1030.57 1030.79 1030.98 1031.56 1031.08 1031.10 1025.33 1024.30 1023.07 1022.18 1021.33 1020.69 1020.00 1019.43 1018.88 1018.03 1017.33 1016.81 1016.20 1015.42 1014.78 1014.62 1014.05 1012.85 1011.79 1010.58 1010.17 1009.74 1008.48 1008.38 1008.39 1008.92 1009.49 1010.25 1010.67 1010.82
1032.16 1031.94 1031.73 1031.25 1030.93 1030.88 1030.50 1030.32 1030.85 1031.11 1031.42 1031.86 1031.45 1030.92 1026.30 1024.10 1022.97 1022.40 1021.30 1020.73 1020.22 1019.52 1018.75 1017.85 1017.03 1016.29 1016.08 1015.52 1014.70 1013.91 1013.62 1012.85 1012.33 1011.72 1010.52 1009.78 1009.19 1007.75 1007.61 1007.85 1008.30 1008.82 1009.43 1010.16
1033.10 1032.42 1031.97 1031.92 1031.59 1031.45 1031.33 1031.18 1031.84 1032.09 1032.17 1032.28 1030.92 1030.32 1025.21 1022.93 1022.23 1021.94 1021.33 1020.93 1020.18 1019.62 1018.92 1018.16 1017.25 1016.20 1015.39 1015.17 1014.73 1014.10 1013.41 1012.67 1012.25 1011.84 1010.78 1009.71 1009.60 1008.37 1006.76 1006.73 1007.21 1007.73 1008.24 1008.98
1035.46 1033.25 1032.71 1032.48 1032.60 1032.64 1032.57 1032.69 1033.61 1034.92 1035.25 1032.88 1030.88 1029.22 1024.16 1022.09 1021.41 1021.04 1020.62 1020.35 1019.94 1019.48 1018.81 1018.17 1017.22 1016.32 1015.46 1014.72 1014.51 1013.87 1013.18 1012.50 1011.83 1011.15 1010.57 1009.77 1008.68 1008.03 1007.17 1005.54 1005.82 1006.38 1006.89 1007.46
1036.40 1034.73 1033.45 1033.24 1033.06 1033.31 1033.27 1033.91 1034.22 1034.83 1035.38 1035.16 1030.55 1027.41 1024.11 1021.59 1021.17 1020.65 1020.29 1020.08 1019.49 1018.76 1018.06 1017.55 1016.73 1016.04 1015.15 1014.33 1013.75 1013.56 1012.80 1012.07 1011.44 1010.72 1010.70 1009.96 1008.79 1008.05 1007.30 1006.10 1004.94 1005.38 1006.04 1006.50
1036.83 1035.92 1034.22 1033.80 1033.62 1033.71 1033.81 1034.30 1034.95 1035.98 1036.30 1034.92 1030.89 1027.95 1024.63 1021.82 1020.96 1020.55 1020.16 1019.66 1018.96 1018.32 1017.49 1016.82 1016.23 1015.46 1014.72 1014.04 1013.37 1012.95 1012.65 1011.86 1011.18 1010.62 1009.98 1009.68 1008.95 1007.90 1007.84 1007.13 1005.09 1004.66 1004.87 1005.63
1036.52 1036.74 1035.26 1034.56 1034.12 1033.93 1034.35 1034.66 1035.73 1036.19 1036.38 1035.37 1032.97 1026.33 1021.85 1021.38 1020.77 1020.68 1020.12 1019.36 1018.75 1017.93 1016.98 1016.13 1015.42 1014.94 1014.25 1013.59 1013.10 1012.65 1012.07 1011.52 1010.78 1010.32 1009.69 1009.37 1008.63 1007.65 1007.34 1006.48 1005.40 1004.38 1004.69 1004.68
1036.08 1036.85 1036.22 1034.82 1034.24 1034.10 1034.19 1034.40 1034.93 1035.88 1036.13 1035.09 1033.39 1025.65 1020.49 1020.36 1020.49 1020.34 1019.84 1018.79 1018.08 1017.41 1016.46 1015.64 1014.88 1014.27 1013.94 1013.42 1012.72 1012.28 1011.93 1011.30 1010.65 1010.06 1009.52 1008.92 1008.31 1007.51 1006.26 1005.65 1004.97 1004.52 1004.51 1004.42
1035.68 1036.77 1036.44 1035.04 1035.23 1034.66 1034.58 1034.21 1034.59 1034.87 1034.85 1033.35 1032.60 1024.65 1020.85 1020.43 1020.26 1019.62 1019.06 1018.12 1017.46 1016.61 1015.75 1014.98 1014.26 1013.66 1013.33 1013.16 1012.52 1011.83 1011.47 1011.17 1010.31 1009.94 1009.29 1008.35 1008.00 1007.30 1006.64 1005.47 1004.78 1004.27 1003.97 1004.63
1034.80 1036.15 1036.26 1035.50 1034.42 1034.45 1034.75 1033.98 1034.01 1033.78 1033.64 1031.02 1028.26 1023.57 1020.73 1020.17 1020.30 1019.30 1018.49 1017.67 1016.88 1016.26 1015.46 1014.73 1013.97 1013.55 1013.21 1012.77 1012.20 1011.55 1011.00 1010.59 1010.26 1009.73 1009.33 1008.67 1007.69 1007.14 1005.89 1005.10 1005.05 1003.84 1003.65 1004.43
1034.70 1036.00 1035.98 1035.32 1034.44 1034.34 1032.51 1032.78 1032.69 1031.99 1030.11 1030.02 1024.46 1024.86 1021.02 1019.98 1019.96 1019.27 1018.37 1017.43 1016.74 1015.92 1015.16 1014.42 1013.91 1013.49 1013.01 1012.46 1011.93 1011.38 1010.83 1010.35 1010.02 1009.68 1009.41 1008.85 1008.26 1007.45 1006.60 1005.77 1005.77 1005.85 1005.70 1005.64
1034.82 1035.57 1036.30 1035.63 1033.99 1033.80 1031.87 1030.24 1029.89 1029.73 1029.18 1028.13 1025.85 1024.22 1021.18 1020.38 1019.80 1018.93 1017.91 1017.12 1016.29 1015.65 1014.96 1014.30 1013.94 1013.36 1012.88 1012.33 1011.70 1011.04 1010.73 1010.22 1009.98 1009.75 1009.28 1009.05 1008.64 1008.26 1007.29 1007.02 1006.82 1006.72 1006.45 1007.06
1034.66 1036.09 1037.14 1035.78 1034.30 1033.40 1029.99 1026.27 1026.69 1027.22 1026.43 1025.68 1025.35 1021.89 1020.98 1019.79 1019.10 1018.44 1017.70 1017.11 1016.48 1015.80 1014.98 1014.29 1014.06 1013.39 1012.98 1012.53 1011.94 1011.29 1010.82 1010.36 1010.07 1009.84 1009.47 1009.09 1008.92 1008.80 1008.42 1007.30 1007.48 1007.79 1007.50 1007.88
1034.14 1035.95 1037.01 1037.09 1034.98 1032.25 1026.06 1025.23 1025.21 1025.36 1024.01 1023.27 1022.25 1021.21 1020.42 1019.71 1018.71 1018.36 1017.44 1017.08 1016.49 1015.80 1015.01 1014.49 1014.04 1013.89 1013.36 1012.76 1012.10 1011.50 1010.88 1010.65 1010.33 1009.91 1009.60 1009.50 1009.46 1009.02 1009.21 1007.73 1008.27 1008.46 1008.38 1008.68
1033.63 1035.21 1037.44 1037.78 1036.33 1030.67 1024.77 1024.88 1024.35 1024.77 1022.02 1020.42 1020.82 1020.42 1019.90 1019.43 1018.96 1017.60 1016.77 1016.77 1016.58 1015.90 1015.08 1014.69 1014.56 1014.16 1013.37 1012.66 1012.25 1011.66 1011.09 1010.80 1010.66 1010.42 1010.06 1009.76 1009.73 1009.61 1009.47 1008.95 1009.09 1009.20 1009.79 1009.71
1033.71 1034.58 1036.23 1038.01 1036.49 1031.49 1024.85 1023.90 1023.23 1023.33 1021.40 1019.23 1019.50 1019.55 1019.54 1019.56 1019.30 1017.46 1016.58 1016.58 1016.12 1015.70 1015.29 1015.06 1014.49 1013.80 1013.20 1012.86 1012.26 1011.65 1011.29 1011.21 1011.11 1010.83 1010.58 1010.24 1010.19 1010.39 1010.06 1010.17 1009.88 1009.89 1010.32 1010.35
1033.98 1034.61 1035.03 1036.12 1034.47 1028.64 1023.25 1023.15 1023.05 1022.36 1019.72 1018.51 1018.89 1018.96 1019.06 1019.16 1018.62 1017.52 1016.96 1016.36 1016.29 1015.81 1015.44 1014.94 1014.46 1014.11 1013.68 1013.11 1012.54 1012.05 1011.81 1011.62 1011.59 1011.36 1011.29 1010.97 1010.88 1010.96 1010.87 1011.07 1011.11 1010.63 1011.24 1011.58
1030.86 1032.03 1032.82 1033.88 1032.13 1026.31 1021.63 1022.64 1021.61 1018.12 1017.88 1018.10 1018.47 1018.40 1018.36 1018.02 1017.63 1017.26 1016.91 1016.31 1016.04 1015.66 1015.29 1014.92 1014.62 1014.35 1013.99 1013.46 1013.08 1012.79 1012.43 1012.38 1012.15 1011.96 1011.94 1012.05 1011.82 1011.77 1011.83 1011.84 1012.10 1011.95 1012.18 1012.74
1028.32 1026.20 1027.06 1026.54 1023.15 1019.91 1019.52 1017.89 1017.48 1017.62 1017.82 1017.62 1017.80 1017.72 1017.76 1017.62 1017.20 1016.98 1016.65 1016.09 1015.97 1015.78 1015.64 1015.36 1015.03 1014.73 1014.57 1014.24 1013.85 1013.69 1013.48 1013.19 1012.81 1012.64 1012.83 1012.87 1012.83 1013.07 1013.10 1012.92 1013.18 1013.21 1013.64 1013.89
1025.17 1024.27 1023.84 1023.36 1018.94 1018.47 1017.96 1017.53 1017.04 1017.11 1017.08 1016.53 1016.83 1016.96 1017.10 1017.12 1016.61 1016.52 1016.59 1016.32 1015.85 1015.73 1015.81 1015.63 1015.25 1014.98 1014.88 1014.85 1014.60 1014.29 1013.85 1013.64 1013.43 1013.33 1013.38 1013.59 1013.99 1014.30 1014.37 1014.38 1014.38 1014.66 1015.03 1015.30
1021.95 1021.93 1021.04 1019.34 1016.99 1017.38 1015.98 1015.53 1015.30 1015.52 1015.67 1015.97 1015.96 1016.24 1016.25 1016.41 1016.25 1016.26 1016.13 1016.30 1015.86 1015.64 1015.90 1015.78 1015.47 1015.26 1015.13 1015.04 1015.00 1014.82 1014.41 1014.25 1014.18 1014.31 1014.22 1014.18 1014.84 1015.40 1015.66 1015.91 1016.13 1016.12 1016.27 1016.52
1019.01 1017.91 1017.83 1014.61 1013.40 1014.01 1013.68 1013.51 1013.72 1014.43 1014.69 1014.81 1015.36 1015.54 1015.46 1015.64 1015.74 1015.91 1015.79 1015.62 1015.81 1015.58 1015.65 1015.59 1015.46 1015.41 1015.37 1015.24 1015.02 1015.15 1014.90 1014.69 1014.78 1015.13 1015.32 1015.40 1015.55 1016.02 1016.48 1016.72 1016.74 1016.75 1016.80 1016.98
Thickness
5554 5548 5527 5522 5531 5531 5527 5517 5509 5510 5522 5521 5520 5524 5530 5535 5529 5524 5523 5517 5516 5514 5518 5530 5541 5559 5567 5584 5605 5619 5629 5636 5640 5634 5634 5634 5643 5646 5651 5655 5656 5656 5655 5657
5545 5531 5526 5525 5532 5531 5523 5519 5508 5516 5513 5517 5504 5519 5519 5516 5513 5506 5502 5495 5488 5488 5491 5498 5512 5526 5541 5548 5560 5590 5615 5621 5631 5627 5630 5633 5634 5636 5639 5640 5646 5648 5648 5649
5540 5535 5523 5530 5525 5533 5523 5517 5500 5492 5499 5494 5489 5500 5501 5514 5499 5497 5495 5481 5472 5461 5463 5468 5481 5495 5508 5515 5528 5552 5580 5603 5605 5620 5622 5626 5628 5628 5627 5632 5638 5647 5646 5644
5530 5525 5520 5527 5524 5523 5523 5515 5499 5490 5483 5471 5464 5481 5477 5492 5489 5482 5477 5466 5460 5448 5447 5448 5455 5468 5483 5499 5500 5522 5544 5568 5587 5597 5614 5620 5625 5626 5630 5626 5627 5629 5636 5640
5531 5514 5513 5520 5521 5516 5514 5507 5492 5487 5471 5452 5449 5425 5470 5476 5483 5475 5467 5457 5448 5440 5433 5435 5436 5445 5459 5473 5490 5498 5513 5537 5560 5574 5588 5601 5618 5625 5627 5624 5625 5622 5624 5628
5510 5503 5503 5509 5508 5504 5502 5495 5484 5471 5458 5430 5443 5434 5462 5467 5475 5460 5461 5455 5445 5437 5432 5432 5434 5436 5438 5454 5472 5488 5499 5511 5526 5544 5563 5581 5592 5616 5621 5621 5621 5622 5622 5622
5489 5504 5496 5492 5495 5492 5480 5466 5454 5465 5435 5453 5439 5434 5469 5480 5470 5457 5450 5443 5441 5433 5429 5426 5425 5428 5432 5435 5449 5467 5477 5491 5507 5522 5540 5559 5569 5588 5614 5619 5619 5619 5619 5617
5452 5494 5489 5483 5480 5469 5466 5453 5437 5414 5420 5435 5445 5425 5478 5477 5471 5461 5448 5437 5430 5427 5423 5420 5422 5420 5423 5426 5431 5445 5452 5468 5485 5504 5520 5538 5559 5576 5592 5616 5616 5618 5620 5619
5426 5469 5474 5472 5466 5460 5456 5422 5440 5403 5390 5379 5427 5443 5463 5478 5468 5460 5449 5437 5431 5431 5427 5422 5423 5420 5419 5421 5424 5425 5433 5449 5468 5483 5494 5514 5537 5557 5574 5593 5613 5611 5615 5617
5436 5439 5466 5463 5457 5451 5448 5434 5410 5379 5363 5368 5422 5431 5445 5467 5469 5457 5446 5439 5434 5430 5429 5425 5420 5418 5417 5415 5414 5418 5417 5429 5446 5460 5479 5495 5515 5539 5552 5568 5594 5608 5611 5612
5413 5424 5459 5440 5429 5442 5432 5413 5385 5377 5379 5375 5374 5437 5459 5462 5457 5440 5435 5431 5426 5424 5423 5423 5421 5414 5411 5407 5405 5404 5411 5417 5431 5445 5459 5476 5496 5522 5536 5555 5577 5597 5602 5605
5433 5403 5421 5443 5441 5434 5430 5424 5404 5380 5374 5372 5382 5436 5480 5459 5444 5428 5425 5436 5429 5423 5420 5418 5414 5406 5395 5392 5395 5396 5396 5406 5417 5431 5444 5458 5480 5502 5526 5546 5565 5582 5586 5594
5431 5398 5394 5447 5420 5414 5398 5417 5415 5394 5385 5372 5354 5431 5463 5446 5440 5446 5435 5435 5429 5424 5421 5416 5411 5398 5380 5374 5381 5387 5389 5392 5404 5417 5432 5448 5462 5485 5504 5529 5551 5566 5577 5579
5444 5409 5426 5440 5445 5393 5382 5381 5403 5384 5358 5394 5409 5454 5473 5464 5443 5441 5438 5434 5429 5420 5416 5411 5406 5389 5373 5368 5372 5376 5382 5385 5391 5403 5419 5434 5450 5467 5495 5516 5531 5557 5568 5570
5426 5403 5403 5423 5431 5403 5431 5417 5392 5399 5424 5391 5460 5424 5454 5458 5442 5433 5431 5428 5422 5420 5413 5408 5397 5384 5375 5367 5364 5366 5371 5377 5381 5391 5404 5420 5432 5447 5469 5492 5511 5525 5532 5543
5420 5402 5386 5396 5426 5415 5419 5430 5422 5419 5415 5409 5417 5419 5439 5439 5435 5427 5428 5426 5425 5416 5411 5405 5393 5382 5373 5366 5359 5357 5360 5367 5371 5379 5393 5404 5419 5429 5448 5463 5482 5500 5511 5517
5414 5394 5364 5389 5411 5400 5431 5453 5447 5425 5422 5422 5399 5433 5436 5439 5441 5432 5432 5425 5415 5410 5406 5400 5385 5378 5369 5359 5353 5348 5347 5355 5362 5370 5381 5393 5405 5418 5430 5448 5459 5474 5490 5496
5415 5387 5359 5373 5373 5396 5493 5459 5430 5438 5448 5435 5435 5438 5438 5435 5439 5425 5428 5419 5411 5408 5403 5396 5386 5372 5360 5351 5346 5343 5342 5346 5355 5363 5372 5381 5392 5407 5416 5439 5442 5453 5470 5475
5416 5396 5353 5341 5297 5419 5485 5445 5428 5422 5459 5459 5446 5442 5435 5429 5424 5428 5432 5421 5410 5402 5402 5393 5380 5370 5360 5352 5344 5342 5342 5343 5347 5353 5360 5372 5383 5395 5406 5423 5431 5436 5445 5456
5407 5398 5375 5294 5336 5389 5475 5453 5442 5428 5442 5465 5453 5444 5434 5425 5424 5438 5437 5424 5415 5406 5401 5392 5383 5376 5365 5354 5345 5339 5337 5335 5337 5345 5352 5361 5376 5384 5395 5408 5419 5426 5430 5441
5393 5392 5392 5322 5331 5399 5455 5450 5441 5431 5480 5465 5452 5450 5435 5418 5421 5428 5426 5422 5412 5406 5401 5395 5386 5379 5368 5360 5352 5343 5333 5330 5330 5336 5342 5351 5365 5376 5386 5392 5404 5416 5419 5424
5398 5384 5381 5344 5329 5402 5451 5435 5450 5485 5478 5463 5440 5435 5435 5428 5426 5424 5422 5420 5415 5413 5403 5397 5391 5383 5372 5363 5356 5347 5341 5333 5331 5333 5338 5344 5356 5368 5378 5387 5391 5401 5406 5410
5416 5440 5411 5421 5445 5479 5459 5479 5478 5468 5465 5460 5453 5444 5438 5430 5428 5426 5422 5422 5414 5411 5405 5396 5391 5383 5374 5362 5355 5347 5342 5338 5339 5340 5341 5346 5353 5361 5370 5381 5384 5390 5392 5397
5419 5433 5426 5432 5484 5474 5472 5469 5470 5465 5463 5467 5453 5446 5436 5431 5430 5427 5423 5421 5420 5412 5403 5397 5392 5384 5380 5369 5359 5352 5349 5345 5346 5345 5345 5346 5350 5353 5360 5369 5377 5379 5380 5385
5445 5437 5435 5436 5483 5472 5489 5488 5483 5478 5471 5463 5455 5446 5441 5434 5431 5427 5425 5420 5420 5416 5407 5399 5395 5388 5383 5375 5364 5359 5355 5351 5351 5349 5348 5350 5351 5349 5353 5357 5363 5369 5371 5373
5445 5452 5457 5505 5509 5496 5508 5494 5487 5478 5473 5465 5458 5453 5445 5438 5433 5426 5424 5422 5417 5416 5410 5402 5398 5393 5388 5382 5377 5368 5362 5359 5357 5355 5354 5354 5354 5350 5350 5353 5359 5365 5369 5370